STARLINK-35511

Last updated on Sun Dec 07 2025 00:02:05 GMT+0000 (Coordinated Universal Time)

1 66344U 25253AB 25340.58335648 -.01621648 00000+0 -39395-1 0 9995 2 66344 43.0000 20.6687 0001682 287.8813 228.1594 15.43525381 5941

Satellite not in orbit